When you browse on this site, cookies collect data to enhance your experience and personalize the content and advertising you see.
Visit our Privacy Policy to learn more. By continuing to use the site, you agree to this use of cookies and data.
  • En España
  • Lista de países
  • Para 7 días
  • Temperatura del agua
  • El tiempo en el mapa
  • Informadores
  • user-avatar
    Iniciar sesión

    Tiempo cada hora Lusaka

    Hoy, 21 Octubre, Lunes

    Tiempo Temperatura Precipitaciones Viento Presión Humedad
    00:00 +24°C° 0 mm 1 mps 655 mmHg 27%
    01:00 +23°C° 0 mm 1 mps 655 mmHg 29%
    02:00 +23°C° 0 mm 1 mps 655 mmHg 30%
    03:00 +22°C° 0 mm 1 mps 655 mmHg 32%
    04:00 +21°C° 0 mm 1 mps 655 mmHg 33%
    05:00 +21°C° 0 mm 1 mps 654 mmHg 34%
    06:00 +24°C° 0 mm 2 mps 656 mmHg 29%
    07:00 +27°C° 0 mm 2 mps 657 mmHg 24%
    08:00 +31°C° 0 mm 3 mps 658 mmHg 19%
    09:00 +34°C° 0 mm 3 mps 659 mmHg 16%
    10:00 +37°C° 0 mm 2 mps 659 mmHg 12%
    11:00 +40°C° 0 mm 2 mps 659 mmHg 9%
    12:00 +40°C° 0 mm 2 mps 658 mmHg 8%
    13:00 +40°C° 0 mm 3 mps 657 mmHg 8%
    14:00 +42°C° 0 mm 4 mps 656 mmHg 7%
    15:00 +41°C° 0 mm 4 mps 655 mmHg 8%
    16:00 +40°C° 0 mm 4 mps 655 mmHg 9%
    17:00 +38°C° 0 mm 4 mps 654 mmHg 10%
    18:00 +35°C° 0 mm 4 mps 654 mmHg 13%
    19:00 +31°C° 0 mm 3 mps 654 mmHg 15%
    20:00 +28°C° 0 mm 2 mps 654 mmHg 18%
    21:00 +27°C° 0 mm 2 mps 654 mmHg 20%
    22:00 +26°C° 0 mm 2 mps 654 mmHg 21%
    23:00 +26°C° 0 mm 2 mps 654 mmHg 22%

    Mañana, 22 Octubre, Martes

    Tiempo Temperatura Precipitaciones Viento Presión Humedad
    00:00 +25°C° 0 mm 2 mps 653 mmHg 23%
    01:00 +25°C° 0 mm 2 mps 653 mmHg 24%
    02:00 +24°C° 0 mm 2 mps 653 mmHg 24%
    03:00 +24°C° 0 mm 2 mps 653 mmHg 25%
    04:00 +24°C° 0 mm 3 mps 654 mmHg 26%
    05:00 +24°C° 0 mm 3 mps 654 mmHg 28%
    06:00 +27°C° 0 mm 4 mps 655 mmHg 26%
    07:00 +29°C° 0 mm 4 mps 656 mmHg 24%
    08:00 +33°C° 0 mm 5 mps 658 mmHg 23%
    09:00 +35°C° 0 mm 4 mps 658 mmHg 19%
    10:00 +37°C° 0 mm 4 mps 658 mmHg 16%
    11:00 +40°C° 0 mm 3 mps 657 mmHg 12%
    12:00 +41°C° 0 mm 4 mps 657 mmHg 12%
    13:00 +41°C° 0 mm 4 mps 656 mmHg 11%
    14:00 +41°C° 0 mm 4 mps 655 mmHg 11%
    15:00 +40°C° 0 mm 4 mps 654 mmHg 11%
    16:00 +38°C° 0 mm 4 mps 654 mmHg 12%
    17:00 +37°C° 0 mm 3 mps 653 mmHg 13%
    18:00 +35°C° 0 mm 3 mps 653 mmHg 14%
    19:00 +33°C° 0 mm 3 mps 653 mmHg 15%
    20:00 +30°C° 0 mm 3 mps 654 mmHg 16%
    21:00 +29°C° 0 mm 3 mps 654 mmHg 19%
    22:00 +28°C° 0 mm 3 mps 654 mmHg 22%
    23:00 +28°C° 0 mm 3 mps 654 mmHg 24%

    Pasado mañana, 23 Octubre, Miércoles

    Tiempo Temperatura Precipitaciones Viento Presión Humedad
    00:00 +27°C° 0 mm 4 mps 654 mmHg 26%
    01:00 +27°C° 0 mm 4 mps 653 mmHg 27%
    02:00 +27°C° 0 mm 5 mps 653 mmHg 28%
    03:00 +26°C° 0 mm 5 mps 654 mmHg 31%
    04:00 +26°C° 0 mm 5 mps 654 mmHg 34%
    05:00 +25°C° 0 mm 5 mps 655 mmHg 37%
    06:00 +27°C° 0 mm 5 mps 655 mmHg 35%
    07:00 +28°C° 0 mm 5 mps 656 mmHg 34%
    08:00 +30°C° 0 mm 6 mps 657 mmHg 32%
    09:00 +33°C° 0 mm 5 mps 657 mmHg 28%
    10:00 +35°C° 0 mm 5 mps 657 mmHg 25%
    11:00 +37°C° 0 mm 5 mps 657 mmHg 21%
    12:00 +38°C° 0 mm 4 mps 657 mmHg 19%
    13:00 +39°C° 0 mm 3 mps 656 mmHg 16%
    14:00 +39°C° 0 mm 3 mps 655 mmHg 14%
    15:00 +39°C° 0 mm 3 mps 655 mmHg 15%
    16:00 +38°C° 0 mm 3 mps 654 mmHg 16%
    17:00 +37°C° 0 mm 3 mps 654 mmHg 17%
    18:00 +35°C° 0 mm 3 mps 654 mmHg 20%
    19:00 +31°C° 0 mm 2 mps 654 mmHg 23%
    20:00 +29°C° 0 mm 2 mps 654 mmHg 25%
    21:00 +28°C° 0 mm 3 mps 654 mmHg 26%
    22:00 +28°C° 0 mm 3 mps 654 mmHg 27%
    23:00 +27°C° 0 mm 3 mps 654 mmHg 27%

    24 Octubre, Jueves

    Tiempo Temperatura Precipitaciones Viento Presión Humedad
    00:00 +27°C° 0 mm 3 mps 654 mmHg 27%
    01:00 +26°C° 0 mm 3 mps 654 mmHg 27%
    02:00 +26°C° 0 mm 4 mps 654 mmHg 27%
    03:00 +26°C° 0 mm 4 mps 654 mmHg 30%
    04:00 +26°C° 0 mm 4 mps 655 mmHg 32%
    05:00 +26°C° 0 mm 4 mps 655 mmHg 35%
    06:00 +27°C° 0 mm 4 mps 656 mmHg 32%
    07:00 +29°C° 0 mm 5 mps 657 mmHg 29%
    08:00 +32°C° 0 mm 5 mps 658 mmHg 27%
    09:00 +35°C° 0 mm 5 mps 658 mmHg 22%
    10:00 +37°C° 0 mm 4 mps 658 mmHg 18%
    11:00 +39°C° 0 mm 3 mps 658 mmHg 14%
    12:00 +41°C° 0 mm 4 mps 658 mmHg 13%
    13:00 +42°C° 0 mm 4 mps 657 mmHg 11%
    14:00 +43°C° 0 mm 4 mps 656 mmHg 10%
    15:00 +42°C° 0 mm 4 mps 656 mmHg 10%
    16:00 +41°C° 0 mm 5 mps 655 mmHg 10%
    17:00 +40°C° 0 mm 5 mps 655 mmHg 11%
    18:00 +36°C° 0 mm 5 mps 654 mmHg 12%
    19:00 +34°C° 0 mm 4 mps 654 mmHg 14%
    20:00 +30°C° 0 mm 4 mps 654 mmHg 16%
    21:00 +29°C° 0 mm 4 mps 654 mmHg 18%
    22:00 +29°C° 0 mm 4 mps 655 mmHg 20%
    23:00 +28°C° 0 mm 4 mps 655 mmHg 22%

    25 Octubre, Viernes

    Tiempo Temperatura Precipitaciones Viento Presión Humedad
    00:00 +28°C° 0 mm 4 mps 655 mmHg 26%
    01:00 +28°C° 0 mm 4 mps 655 mmHg 31%
    02:00 +28°C° 0 mm 4 mps 655 mmHg 35%
    03:00 +27°C° 0 mm 4 mps 655 mmHg 36%
    04:00 +26°C° 0 mm 4 mps 655 mmHg 38%
    05:00 +25°C° 0 mm 4 mps 655 mmHg 39%
    06:00 +27°C° 0 mm 4 mps 656 mmHg 37%
    07:00 +29°C° 0 mm 5 mps 657 mmHg 34%
    08:00 +32°C° 0 mm 5 mps 658 mmHg 32%
    09:00 +34°C° 0 mm 5 mps 658 mmHg 28%
    10:00 +36°C° 0 mm 4 mps 658 mmHg 24%
    11:00 +38°C° 0 mm 3 mps 658 mmHg 20%
    12:00 +38°C° 0 mm 3 mps 657 mmHg 19%
    13:00 +38°C° 0 mm 2 mps 657 mmHg 19%
    14:00 +38°C° 0 mm 2 mps 656 mmHg 18%
    15:00 +37°C° 0 mm 2 mps 655 mmHg 19%
    16:00 +36°C° 0 mm 3 mps 655 mmHg 19%
    17:00 +36°C° 0 mm 3 mps 654 mmHg 20%
    18:00 +34°C° 0 mm 3 mps 654 mmHg 23%
    19:00 +30°C° 0 mm 2 mps 654 mmHg 27%
    20:00 +28°C° 0 mm 2 mps 654 mmHg 30%
    21:00 +27°C° 0 mm 2 mps 654 mmHg 32%
    22:00 +27°C° 0 mm 2 mps 654 mmHg 34%
    23:00 +26°C° 0 mm 2 mps 655 mmHg 35%

    26 Octubre, Sábado

    Tiempo Temperatura Precipitaciones Viento Presión Humedad
    00:00 +26°C° 0 mm 2 mps 654 mmHg 37%
    01:00 +25°C° 0 mm 2 mps 654 mmHg 38%
    02:00 +24°C° 0 mm 2 mps 653 mmHg 40%
    03:00 +24°C° 0 mm 2 mps 654 mmHg 41%
    04:00 +24°C° 0 mm 2 mps 654 mmHg 42%
    05:00 +24°C° 0 mm 2 mps 654 mmHg 43%
    06:00 +26°C° 0 mm 3 mps 655 mmHg 37%
    07:00 +28°C° 0 mm 3 mps 656 mmHg 32%
    08:00 +32°C° 0 mm 4 mps 657 mmHg 26%
    09:00 +34°C° 0 mm 4 mps 658 mmHg 23%
    10:00 +37°C° 0 mm 3 mps 658 mmHg 19%
    11:00 +39°C° 0 mm 3 mps 658 mmHg 16%
    12:00 +40°C° 0 mm 3 mps 657 mmHg 15%
    13:00 +40°C° 0 mm 3 mps 656 mmHg 13%
    14:00 +42°C° 0 mm 3 mps 656 mmHg 12%
    15:00 +41°C° 0 mm 4 mps 655 mmHg 12%
    16:00 +40°C° 0 mm 4 mps 654 mmHg 12%
    17:00 +39°C° 0 mm 5 mps 654 mmHg 13%
    18:00 +35°C° 0 mm 4 mps 654 mmHg 15%
    19:00 +33°C° 0 mm 3 mps 654 mmHg 18%
    20:00 +29°C° 0 mm 3 mps 653 mmHg 21%
    21:00 +28°C° 0 mm 3 mps 653 mmHg 23%
    22:00 +27°C° 0 mm 3 mps 653 mmHg 25%
    23:00 +26°C° 0 mm 3 mps 653 mmHg 28%

    27 Octubre, Domingo

    Tiempo Temperatura Precipitaciones Viento Presión Humedad
    00:00 +26°C° 0 mm 3 mps 653 mmHg 28%
    01:00 +27°C° 0 mm 3 mps 653 mmHg 28%
    02:00 +27°C° 0 mm 3 mps 653 mmHg 28%
    03:00 +26°C° 0 mm 3 mps 653 mmHg 30%
    04:00 +25°C° 0 mm 3 mps 653 mmHg 32%
    05:00 +24°C° 0 mm 3 mps 654 mmHg 34%
    06:00 +27°C° 0 mm 4 mps 655 mmHg 30%
    07:00 +29°C° 0 mm 4 mps 656 mmHg 26%
    08:00 +32°C° 0 mm 4 mps 657 mmHg 22%
    09:00 +35°C° 0 mm 4 mps 657 mmHg 19%
    10:00 +37°C° 0 mm 4 mps 657 mmHg 16%
    11:00 +40°C° 0 mm 4 mps 657 mmHg 13%
    12:00 +41°C° 0 mm 4 mps 657 mmHg 12%
    13:00 +42°C° 0 mm 4 mps 656 mmHg 11%
    14:00 +42°C° 0 mm 4 mps 655 mmHg 10%
    15:00 +42°C° 0 mm 4 mps 655 mmHg 10%
    16:00 +41°C° 0 mm 5 mps 654 mmHg 10%
    17:00 +40°C° 0 mm 5 mps 653 mmHg 10%
    18:00 +36°C° 0 mm 5 mps 653 mmHg 13%
    19:00 +33°C° 0 mm 4 mps 653 mmHg 16%
    20:00 +30°C° 0 mm 3 mps 653 mmHg 19%
    21:00 +28°C° 0 mm 3 mps 653 mmHg 20%
    22:00 +27°C° 0 mm 3 mps 653 mmHg 20%
    23:00 +25°C° 0 mm 2 mps 653 mmHg 21%
    Mostrar más